This demonstration page uses our WeatherBlox Daily Observations layout. Learn more.

Hourly Observations for September 5, 2015

Temp ( °F °C ) Dew Point ( °F °C ) Humidity (%) Winds ( mph kmh ) Pressure ( in mb ) Visibility ( mi km ) Precip ( " mm )
12:15 am 00:15 Clear 78 25.4 61 16.1 56 56 S 10 17 29.77 1008 10 16.0934 0 0
12:35 am 00:35 Clear 78 25.7 61 16 55 55 S 12 19 29.74 1007 10 16.0934 0 0
12:55 am 00:55 Clear 78 25.4 60 15.8 55 55 SSE 10 17 29.77 1008 10 16.0934 0 0
1:15 am 01:15 Clear 77 25 60 15.7 56 56 SSE 12 19 29.77 1008 10 16.0934 0 0
1:35 am 01:35 Clear 76 24.3 60 15.7 59 59 SSE 9 15 29.77 1008 10 16.0934 0 0
1:55 am 01:55 Clear 76 24.3 60 15.6 58 58 S 12 19 29.77 1008 10 16.0934 0 0
2:15 am 02:15 Clear 75 24.1 60 15.5 59 59 SSE 12 19 29.77 1008 10 16.0934 0 0
2:35 am 02:35 Clear 75 24 60 15.5 59 59 SSE 12 19 29.77 1008 10 16.0934 0 0
2:55 am 02:55 Clear 75 24 60 15.5 59 59 S 12 19 29.77 1008 10 16.0934 0 0
3:15 am 03:15 Clear 75 24 60 15.5 59 59 S 12 19 29.77 1008 10 16.0934 0 0
3:35 am 03:35 Clear 75 23.7 60 15.5 60 60 S 12 19 29.77 1008 10 16.0934 0 0
3:55 am 03:55 Clear 74 23.4 60 15.5 61 61 S 10 17 29.77 1008 10 16.0934 0 0
4:15 am 04:15 Partly Cloudy 74 23.5 60 15.5 61 61 S 13 20 29.77 1008 10 16.0934 0 0
4:35 am 04:35 Partly Cloudy 74 23.5 60 15.5 61 61 S 13 20 29.77 1008 10 16.0934 0 0
4:55 am 04:55 Clear 74 23.1 60 15.5 62 62 S 12 19 29.77 1008 10 16.0934 0 0
5:15 am 05:15 Clear 73 22.8 60 15.6 64 64 S 12 19 29.77 1008 10 16.0934 0 0
5:35 am 05:35 Clear 73 22.8 60 15.6 64 64 S 14 22 29.77 1008 10 16.0934 0 0
5:55 am 05:55 Clear 73 22.9 60 15.6 64 64 S 12 19 29.77 1008 10 16.0934 0 0
6:15 am 06:15 Clear 73 22.5 60 15.7 66 66 SSE 10 17 29.77 1008 10 16.0934 0 0
6:35 am 06:35 Clear 72 22.4 60 15.7 66 66 S 12 19 29.77 1008 10 16.0934 0 0
6:55 am 06:55 Clear 72 22.2 61 16 68 68 S 12 19 29.77 1008 10 16.0934 0 0
7:15 am 07:15 Sunny 73 22.5 61 16 67 67 S 9 15 29.77 1008 10 16.0934 0 0
7:35 am 07:35 Sunny 73 22.5 61 16.2 68 68 S 9 15 29.8 1009 10 16.0934 0 0
7:55 am 07:55 Sunny 73 23 62 16.5 67 67 S 10 17 29.8 1009 10 16.0934 0 0
8:15 am 08:15 Sunny 74 23.6 62 16.6 65 65 S 9 15 29.8 1009 10 16.0934 0 0
8:35 am 08:35 Sunny 76 24.5 62 16.7 62 62 S 13 20 29.8 1009 10 16.0934 0 0
8:55 am 08:55 Sunny 77 25 62 16.9 61 61 S 13 20 29.8 1009 10 16.0934 0 0
9:15 am 09:15 Sunny 77 25 62 16.9 61 61 S 13 20 29.8 1009 10 16.0934 0 0
9:35 am 09:35 Sunny 77 24.8 62 16.9 62 62 S 12 19 29.8 1009 10 16.0934 0 0
9:55 am 09:55 Sunny 77 24.9 62 16.9 61 61 S 14 22 29.8 1009 10 16.0934 0 0
10:15 am 10:15 Sunny 78 25.5 63 17 59 59 S 13 20 29.77 1008 10 16.0934 0 0
10:35 am 10:35 Sunny 78 25.8 62 16.9 58 58 S 15 24 29.77 1008 10 16.0934 0 0
10:55 am 10:55 Sunny 80 26.5 63 17.1 56 56 S 13 20 29.77 1008 10 16.0934 0 0
11:15 am 11:15 Sunny 81 27 62 16.9 54 54 S 13 20 29.77 1008 10 16.0934 0 0
11:35 am 11:35 Sunny 82 27.7 63 17.3 53 53 S 15 24 29.77 1008 10 16.0934 0 0
11:55 am 11:55 Sunny 82 27.8 63 17.1 52 52 S 17 28 29.77 1008 10 16.0934 0 0
12:15 pm 12:15 Sunny 85 29.2 62 16.6 47 47 S 22 35 29.74 1007 10 16.0934 0 0
12:35 pm 12:35 Sunny 87 30.5 62 16.6 43 43 S 20 31 29.71 1006 10 16.0934 0 0
12:55 pm 12:55 Sunny 88 30.9 61 16.1 41 41 S 17 28 29.71 1006 10 16.0934 0 0
1:15 pm 13:15 Sunny 89 31.5 61 15.9 39 39 S 18 30 29.71 1006 10 16.0934 0 0
1:35 pm 13:35 Sunny 89 31.5 60 15.8 39 39 S 15 24 29.71 1006 10 16.0934 0 0
1:55 pm 13:55 Sunny 90 32 59 15 36 36 S 16 26 29.68 1005 10 16.0934 0 0
2:15 pm 14:15 Partly Cloudy 89 31.5 59 15 37 37 S 14 22 29.68 1005 10 16.0934 0 0
2:35 pm 14:35 Partly Cloudy 89 31.9 60 15.6 37 37 S 12 19 29.68 1005 10 16.0934 0 0
2:55 pm 14:55 Partly Cloudy 90 32 59 15.1 36 36 S 15 24 29.68 1005 10 16.0934 0 0
3:15 pm 15:15 Sunny 91 32.7 59 15.1 35 35 SSE 15 24 29.62 1003 10 16.0934 0 0
3:35 pm 15:35 Sunny 93 33.9 59 15.1 32 32 S 17 28 29.62 1003 10 16.0934 0 0
3:55 pm 15:55 Sunny 93 33.8 58 14.7 32 32 SSE 22 35 29.62 1003 10 16.0934 0 0
4:15 pm 16:15 Sunny 92 33.6 58 14.6 32 32 SSE 17 28 29.62 1003 10 16.0934 0 0
4:35 pm 16:35 Partly Cloudy 91 32.8 58 14.7 33 33 SSE 14 22 29.62 1003 10 16.0934 0 0
4:55 pm 16:55 Partly Cloudy 91 33 59 14.9 34 34 SSE 13 20 29.62 1003 10 16.0934 0 0
5:15 pm 17:15 Mostly Cloudy 91 32.8 58 14.5 33 33 SSE 16 26 29.59 1002 10 16.0934 0 0
5:35 pm 17:35 Mostly Cloudy 91 32.9 58 14.3 32 32 S 15 24 29.59 1002 10 16.0934 0 0
5:55 pm 17:55 Partly Cloudy 91 32.7 58 14.2 33 33 S 13 20 29.59 1002 10 16.0934 0 0
6:15 pm 18:15 Partly Cloudy 91 32.6 58 14.3 33 33 SSE 13 20 29.59 1002 10 16.0934 0 0
6:35 pm 18:35 Partly Cloudy 90 32.2 58 14.4 34 34 SSE 13 20 29.62 1003 10 16.0934 0 0
6:55 pm 18:55 Partly Cloudy 91 32.6 57 14.1 33 33 S 14 22 29.59 1002 10 16.0934 0 0
7:15 pm 19:15 Partly Cloudy 88 31.1 58 14.3 36 36 SSE 13 20 29.65 1004 10 16.0934 0 0
7:35 pm 19:35 Partly Cloudy 86 29.8 59 15 41 41 SSE 12 19 29.65 1004 10 16.0934 0 0
7:55 pm 19:55 Partly Cloudy 84 28.8 60 15.5 44 44 SSE 12 19 29.65 1004 10 16.0934 0 0
8:15 pm 20:15 Clear 83 28.2 60 15.6 46 46 SSE 10 17 29.68 1005 10 16.0934 0 0
8:35 pm 20:35 Partly Cloudy 84 28.7 59 15 43 43 SSE 12 19 29.65 1004 10 16.0934 0 0
8:55 pm 20:55 Mostly Cloudy 84 28.7 59 14.9 43 43 SSE 9 15 29.65 1004 10 16.0934 0 0
9:15 pm 21:15 Partly Cloudy 82 27.8 60 15.3 47 47 SSE 9 15 29.68 1005 10 16.0934 0 0
9:35 pm 21:35 Clear 82 27.6 60 15.6 48 48 SSE 13 20 29.71 1006 10 16.0934 0 0
9:55 pm 21:55 Clear 81 27.4 60 15.8 49 49 SSE 13 20 29.71 1006 10 16.0934 0 0
10:15 pm 22:15 Clear 81 27.2 61 16 50 50 SSE 12 19 29.71 1006 10 16.0934 0 0
10:35 pm 22:35 Clear 80 26.9 61 16.2 52 52 SSE 14 22 29.71 1006 10 16.0934 0 0
10:55 pm 22:55 Clear 80 26.6 61 16.3 53 53 SSE 13 20 29.71 1006 10 16.0934 0 0
11:15 pm 23:15 Clear 80 26.5 62 16.5 54 54 SSE 13 20 29.71 1006 10 16.0934 0 0
11:35 pm 23:35 Clear 80 26.5 62 16.5 54 54 SSE 12 19 29.71 1006 10 16.0934 0 0
11:55 pm 23:55 Clear 79 26.1 61 16.3 55 55 SSE 12 19 29.71 1006 10 16.0934 0 0

Powered by AerisWeather